Regional Weather Roundup
Issued by NWS Midland/Odessa, TX

Skip options and go directly to product.
Home | Oldest Version | Previous Version | Current Version | All | Text Only | Save Text | Print | Product List | Glossary On

Skip product version selection by date and time.   
517
ASUS44 KMAF 300310
RWRMAF
MIDLAND AREA WEATHER ROUNDUP
NATIONAL WEATHER SERVICE MIDLAND TX
1000 PM CDT FRI JUL 29 2016

...IN SOUTHWEST TEXAS AND SOUTHEAST NEW MEXICO...

CITY           SKY/WX    TMP DP  RH WIND       PRES   REMARKS
ALPINE         MOCLDY    73  56  55 S6        30.16S
ANDREWS        FAIR      83  58  43 SE5       30.03R
ARTESIA        CLEAR     86  55  35 SE7       30.03R
BIG SPRING     CLEAR     84  58  41 SE5       30.02R
CARLSBAD       CLEAR     85  54  34 SE6       29.99R
DRYDEN           N/A     84  65  52 SE9       29.97R
FORT STOCKTON  CLEAR     82  60  47 S13G23    30.01R
GUAD PASS      CLEAR     76  56  49 SE6       30.17R
HOBBS          CLEAR     81  55  41 SE5       30.06R
MARFA          CLOUDY    69  60  73 E7        30.15R
MIDLAND AIRPK  CLEAR     88  56  33 SE7       30.02R
MIDLAND INTL   CLEAR     87  58  37 SE9       30.01R
ODESSA         CLEAR     87  58  37 S10       30.02R
PECOS          CLEAR     87  58  37 SE14      29.96R
PRESIDIO       FAIR      80  64  57 E3        29.99R
SEMINOLE       CLEAR     82  55  40 SE3       30.05R
SNYDER           N/A     85  62  45 SE6       30.00R
WINK           CLEAR     87  58  37 SE12      29.97R
$$
...OTHER STATIONS IN TEXAS...

CITY           SKY/WX    TMP DP  RH WIND       PRES   REMARKS
ABILENE        CLEAR     81  66  60 S7        29.97R
AMARILLO       CLOUDY    80  62  54 SE7       30.08R
AUSTIN         PTCLDY    82  72  71 S6        29.95R
BROWNSVILLE    CLEAR     83  76  79 SE9       29.96R
CORPUS CHRISTI PTCLDY    84  77  79 SE13      29.96R
DALLAS FTW     PTCLDY    88  68  51 S9        29.91R
DEL RIO        CLEAR     86  64  47 E7        29.91S
EL PASO        MOCLDY    88  56  33 SE20      29.99R
HOUSTON INT    PTCLDY    85  74  69 S8        29.95S
LUBBOCK        MOCLDY    87  57  35 S7        30.04R
SAN ANGELO     CLEAR     85  62  46 S6        29.97R
SAN ANTONIO    PTCLDY    82  68  62 SE8       29.97R
WACO           CLEAR     83  71  67 SE5       29.93R
WICHITA FALLS  NOT AVBL
$$
...OTHER LOCATIONS IN NEW MEXICO...

CITY           SKY/WX    TMP DP  RH WIND       PRES   REMARKS
ALAMAGORDO     CLOUDY    82  46  28 N7        30.05R
ALBUQUERQUE    CLOUDY    72  57  59 S5        30.11F
CANNON AFB     CLEAR     79  57  46 S10       30.09R
CLOVIS         CLEAR     81  54  39 S10       30.09S
HOLLOMAN AFB   CLOUDY    84  52  33 VRB5      30.03R
ROSWELL        CLEAR     85  52  32 S8        30.02R
RUIDOSO          N/A     72  46  40 SE5       30.29R
SANTA FE       CLOUDY    69  46  43 E9        30.22R
TRUTH OR CONSE MOCLDY    79  47  32 NW6       30.07R
TUCUMCARI      CLOUDY    70  62  76 S6        30.09R
$$

USA.gov is the U.S. government's official web portal to all federal, state and local government web resources and services.